User: anonymous   Login
Location: Grasslands National Park East Block
(49.0708°N, 106.5295°W)
Time: 22:48:52
(UTC-06:00)
Language:

SR - Orbit

View from above orbital plane
View from above orbital plane
View from above satellite
View from above satellite

Ground track
Ground track

The orbit data is extracted from the following two-line orbital elements,

1    46U 60007B   19265.04888980 -.00000052  00000-0  13050-4 0  9992
2    46  66.6905  54.4555 0213782 330.1968  28.7098 14.49244300100067
Epoch (UTC): 22 September 2019 01:10:24
Eccentricity: 0.0213782
inclination: 66.6905°
perigee height: 576 km
apogee height: 880 km
right ascension of ascending node: 54.4555°
argument of perigee: 330.1968°
revolutions per day: 14.49244300
mean anomaly at epoch: 28.7098°
orbit number at epoch: 10006

The dashed part of the orbit path shows where the satellite is in the earth's shadow,  

DLR